This is the latest recevied weather packets stored in our database for station/object K4DFD-13. If no packets are shown the sender has not sent any weather packets the latest 10 day(s).
| Time | Temp. | Humidity | Pressure | Rain* | Wind** | Luminosity | Snow |
|---|---|---|---|---|---|---|---|
| 1777485222 | 18.33° C | 92% | 1010.8 hPa | 0 mm | - | - | - |
| 1777484922 | 18.33° C | 94% | 1011.4 hPa | 0 mm | - | - | - |
| 1777484622 | 18.89° C | 89% | 1011.7 hPa | 0 mm | - | - | - |
| 1777484322 | 18.89° C | 88% | 1011.5 hPa | 0 mm | - | - | - |
| 1777484021 | 18.89° C | 90% | 1011.6 hPa | 0 mm | - | - | - |
| 1777483721 | 18.89° C | 89% | 1011.7 hPa | 0 mm | - | - | - |
| 1777483421 | 18.89° C | 89% | 1011.9 hPa | 0 mm | - | - | - |
| 1777483120 | 18.89° C | 89% | 1011.9 hPa | 0 mm | - | - | - |
| 1777482820 | 18.89° C | 90% | 1011.8 hPa | 0 mm | - | - | - |
| 1777482520 | 18.33° C | 90% | 1011.6 hPa | 0 mm | - | - | - |
| 1777482219 | 18.33° C | 89% | 1012 hPa | 0 mm | - | - | - |
| 1777481919 | 18.33° C | 92% | 1012.1 hPa | 0 mm | - | - | - |
| 1777481619 | 17.78° C | 92% | 1011.7 hPa | 0 mm | - | - | - |
| 1777481319 | 17.78° C | 94% | 1011.8 hPa | 0 mm | - | - | - |
| 1777481018 | 17.22° C | 98% | 1011.9 hPa | 0.25 mm | - | - | - |
| 1777480718 | 16.67° C | 97% | 1012.3 hPa | 0.51 mm | - | - | - |
| 1777480417 | 16.67° C | 98% | 1012.7 hPa | 0.51 mm | - | - | - |
| 1777480117 | 16.11° C | 98% | 1012.9 hPa | 0.76 mm | - | - | - |
| 1777479817 | 16.11° C | 98% | 1013.1 hPa | 0.51 mm | - | - | - |
| 1777479516 | 16.67° C | 98% | 1013 hPa | 0.51 mm | - | - | - |
| 1777479216 | 16.11° C | 98% | 1013.1 hPa | 0.76 mm | - | - | - |
| 1777478916 | 16.11° C | 98% | 1013.2 hPa | 0.76 mm | - | - | - |
| 1777478615 | 16.11° C | 98% | 1012.9 hPa | 0.76 mm | - | - | - |
| 1777478315 | 16.11° C | 98% | 1013 hPa | 1.27 mm | - | - | - |
| 1777478015 | 16.11° C | 99% | 1013 hPa | 1.02 mm | - | - | - |
* Rain latest hour (hover to see other rain measurements)
** Current wind speed in m/s (hover to see current wind gust speed)